W.p. Scott — WDJ2782 — position and weather

sailwx.info

Track history (hours):
 
Tides and Currents Weather Stations Pressure Air Temp Water Temp Dewpoint Dewpoint Depression Visibility Wind Speed Wind Dir Waves Ship Positions

W.p. Scott

Owner: MOBRO Marine, Inc., Green Cove Springs, FL. More information available from US FCC via Universal Licensing System and Coast Guard Vessel Documentation Center.

Last reported at 2018-Dec-10 22:00 UTC. Time now 2018-Dec-10 22:09 UTC.
Position N 25°46' W 080°10'.

Length 13 m.

Type: Tug. MMSI: 367761670.

Date/timePositionNaut miles runAvg speedWind from/ knotsBaromVisibWave heightAir tempDewpointWater temp
2018-Dec-10 22:00N 25°46' W 080°10'0 0.0
2018-Dec-10 21:30N 25°46' W 080°10'0 0.0
2018-Dec-10 20:59N 25°46' W 080°10'0 0.0
2018-Dec-10 20:30N 25°46' W 080°10'0 0.0
2018-Dec-10 19:59N 25°46' W 080°10'0 0.0
2018-Dec-10 19:29N 25°46' W 080°10'0 0.0
2018-Dec-10 18:59N 25°46' W 080°10'0 0.0
2018-Dec-10 18:29N 25°46' W 080°10'0 0.0
2018-Dec-10 17:56N 25°46' W 080°10'0 0.0
2018-Dec-10 17:29N 25°46' W 080°10'0 0.0
2018-Dec-10 17:00N 25°46' W 080°10'0 0.0
2018-Dec-10 16:30N 25°46' W 080°10'0 0.0
2018-Dec-10 16:00N 25°46' W 080°10'0 0.0
2018-Dec-10 15:28N 25°46' W 080°10'0 0.0
2018-Dec-10 14:58N 25°46' W 080°10'0 0.0
2018-Dec-10 14:27N 25°46' W 080°10'1 1.4
2018-Dec-10 14:00N 25°47' W 080°11'2 4.2
2018-Dec-10 13:29N 25°49' W 080°11'3 5.1
2018-Dec-10 13:00N 25°51' W 080°10'3 5.6
2018-Dec-10 12:28N 25°54' W 080°08'2 3.9
2018-Dec-10 11:59N 25°56' W 080°08'0 0.0
2018-Dec-10 11:30N 25°56' W 080°08'0 0.0
2018-Dec-10 10:57N 25°56' W 080°08'0 0.2
2018-Dec-10 10:30N 25°56' W 080°08'0 0.0
2018-Dec-10 09:59N 25°56' W 080°08'0 0.0
2018-Dec-10 09:30N 25°56' W 080°08'0 0.0
2018-Dec-10 09:00N 25°56' W 080°08'0 0.0
2018-Dec-10 08:13N 25°56' W 080°08'0 0.0
2018-Dec-10 08:00N 25°56' W 080°08'0 0.0
2018-Dec-10 07:29N 25°56' W 080°08'0 0.0
2018-Dec-10 06:58N 25°56' W 080°08'0 0.0
2018-Dec-10 06:25N 25°56' W 080°08'0 0.0
2018-Dec-10 05:50N 25°56' W 080°08'0 0.0
2018-Dec-10 05:23N 25°56' W 080°08'0 0.0
2018-Dec-10 04:59N 25°56' W 080°08'0 0.1
2018-Dec-10 04:28N 25°56' W 080°08'0 0.0
2018-Dec-10 03:43N 25°56' W 080°08'0 0.0
2018-Dec-10 03:28N 25°56' W 080°08'1 0.5
2018-Dec-10 02:27N 25°56' W 080°08'2 4.6
2018-Dec-10 02:00N 25°58' W 080°07'2 4.0
2018-Dec-10 01:27N 26°00' W 080°07'2 4.8
2018-Dec-10 00:57N 26°03' W 080°07'3 5.7
2018-Dec-10 00:27N 26°06' W 080°07'2 3.9
2018-Dec-09 23:57N 26°08' W 080°06'2 3.8
2018-Dec-09 23:27N 26°09' W 080°06'2 4.9
2018-Dec-09 22:58N 26°12' W 080°06'3 5.7
2018-Dec-09 22:28N 26°15' W 080°05'3 5.0
2018-Dec-09 21:55N 26°17' W 080°05'3 5.5
2018-Dec-09 21:25N 26°20' W 080°05'3 5.3
2018-Dec-09 20:55N 26°23' W 080°04'30 5.2
2018-Dec-09 15:14N 26°52' W 080°04'1 5.0
2018-Dec-09 14:57N 26°54' W 080°04'2 4.9
2018-Dec-09 14:30N 26°56' W 080°05'1 2.7
2018-Dec-09 14:01N 26°57' W 080°05'1 2.3
2018-Dec-09 13:31N 26°58' W 080°05'1 2.4
2018-Dec-09 13:01N 26°59' W 080°05'2 3.0
2018-Dec-09 12:30N 27°01' W 080°06'  
Track history (hours):
 
Tides and Currents Weather Stations Pressure Air Temp Water Temp Dewpoint Dewpoint Depression Visibility Wind Speed Wind Dir Waves Ship Positions

W.p. Scott

Owner: MOBRO Marine, Inc., Green Cove Springs, FL. More information available from US FCC via Universal Licensing System and Coast Guard Vessel Documentation Center.

Last reported at 2018-Dec-10 22:00 UTC. Time now 2018-Dec-10 22:09 UTC.
Position N 25°46' W 080°10'.

Length 13 m.

Type: Tug. MMSI: 367761670.

Date/timePositionNaut miles runAvg speedWind from/ knotsBaromVisibWave heightAir tempDewpointWater temp
2018-Dec-10 22:00N 25°46' W 080°10'0 0.0
2018-Dec-10 21:30N 25°46' W 080°10'0 0.0
2018-Dec-10 20:59N 25°46' W 080°10'0 0.0
2018-Dec-10 20:30N 25°46' W 080°10'0 0.0
2018-Dec-10 19:59N 25°46' W 080°10'0 0.0
2018-Dec-10 19:29N 25°46' W 080°10'0 0.0
2018-Dec-10 18:59N 25°46' W 080°10'0 0.0
2018-Dec-10 18:29N 25°46' W 080°10'0 0.0
2018-Dec-10 17:56N 25°46' W 080°10'0 0.0
2018-Dec-10 17:29N 25°46' W 080°10'0 0.0
2018-Dec-10 17:00N 25°46' W 080°10'0 0.0
2018-Dec-10 16:30N 25°46' W 080°10'0 0.0
2018-Dec-10 16:00N 25°46' W 080°10'0 0.0
2018-Dec-10 15:28N 25°46' W 080°10'0 0.0
2018-Dec-10 14:58N 25°46' W 080°10'0 0.0
2018-Dec-10 14:27N 25°46' W 080°10'1 1.4
2018-Dec-10 14:00N 25°47' W 080°11'2 4.2
2018-Dec-10 13:29N 25°49' W 080°11'3 5.1
2018-Dec-10 13:00N 25°51' W 080°10'3 5.6
2018-Dec-10 12:28N 25°54' W 080°08'2 3.9
2018-Dec-10 11:59N 25°56' W 080°08'0 0.0
2018-Dec-10 11:30N 25°56' W 080°08'0 0.0
2018-Dec-10 10:57N 25°56' W 080°08'0 0.2
2018-Dec-10 10:30N 25°56' W 080°08'0 0.0
2018-Dec-10 09:59N 25°56' W 080°08'0 0.0
2018-Dec-10 09:30N 25°56' W 080°08'0 0.0
2018-Dec-10 09:00N 25°56' W 080°08'0 0.0
2018-Dec-10 08:13N 25°56' W 080°08'0 0.0
2018-Dec-10 08:00N 25°56' W 080°08'0 0.0
2018-Dec-10 07:29N 25°56' W 080°08'0 0.0
2018-Dec-10 06:58N 25°56' W 080°08'0 0.0
2018-Dec-10 06:25N 25°56' W 080°08'0 0.0
2018-Dec-10 05:50N 25°56' W 080°08'0 0.0
2018-Dec-10 05:23N 25°56' W 080°08'0 0.0
2018-Dec-10 04:59N 25°56' W 080°08'0 0.1
2018-Dec-10 04:28N 25°56' W 080°08'0 0.0
2018-Dec-10 03:43N 25°56' W 080°08'0 0.0
2018-Dec-10 03:28N 25°56' W 080°08'1 0.5
2018-Dec-10 02:27N 25°56' W 080°08'2 4.6
2018-Dec-10 02:00N 25°58' W 080°07'2 4.0
2018-Dec-10 01:27N 26°00' W 080°07'2 4.8
2018-Dec-10 00:57N 26°03' W 080°07'3 5.7
2018-Dec-10 00:27N 26°06' W 080°07'2 3.9
2018-Dec-09 23:57N 26°08' W 080°06'2 3.8
2018-Dec-09 23:27N 26°09' W 080°06'2 4.9
2018-Dec-09 22:58N 26°12' W 080°06'3 5.7
2018-Dec-09 22:28N 26°15' W 080°05'3 5.0
2018-Dec-09 21:55N 26°17' W 080°05'3 5.5
2018-Dec-09 21:25N 26°20' W 080°05'3 5.3
2018-Dec-09 20:55N 26°23' W 080°04'30 5.2
2018-Dec-09 15:14N 26°52' W 080°04'1 5.0
2018-Dec-09 14:57N 26°54' W 080°04'2 4.9
2018-Dec-09 14:30N 26°56' W 080°05'1 2.7
2018-Dec-09 14:01N 26°57' W 080°05'1 2.3
2018-Dec-09 13:31N 26°58' W 080°05'1 2.4
2018-Dec-09 13:01N 26°59' W 080°05'2 3.0
2018-Dec-09 12:30N 27°01' W 080°06'  

Dump ship's entire track history